FLOCK 2K-36 (42876 NORAD) Tracking and Keplerian Element Data

This shows tracking and keplerian element data for the satellite.

Feedback or suggestion? Click here.




ElementValue
Catalog42876
NameFLOCK 2K-36
Epoch Orbit3280
Epoch Day45.50760803
Epoch Year2018
RAAN308.3236
Inclination96.9934
Eccentricity0.001248
Argument of Perigee178.2828
Mean Anonmoly181.8462
Mean Motion15.35201948
Decay Rate5.007E-05
L11 42876U 17042BD 18045.50760803 .00005007 00000-0 14837-3 0 9996
L22 42876 96.9934 308.3236 0012480 178.2828 181.8462 15.35201948 32806

Live tracking and technical data element details for FLOCK 2K-36 (NORAD 42876). FLOCK 2K-36 can be tracked NOW for your location showing map with azimuth and elevation plus other details from your city location.

Track the satellite on the map from your city or location and see movement details for azimuth, elevation, latitude, longitude, range, height, and movement on the map or in text.







IsCatalogInMostPopularTable: catalog: 42876, numindb: 120
Update: records affected: 1



GetName: 42876 FLOCK 2K-36

Hit Count: updated at: Sun, 16 Dec 2018 10:31:59 GMT